Location: Unspecified
(0.0000°N, 0.0000°E)
Time: 14:22:47
(UTC+00:00)

N. Korean satellite - Pass Details

Date: 20 May 2019
Orbit: 457 x 507 km, 97.2° (Epoch: 23 August)

Event Time Altitude Azimuth Distance (km) Brightness Sun altitude
Rises 18:39:36 0° 207° (SSW) 2,592 10.4 -10.1°
Drops below altitude 10° 18:41:48 - 227° (SW) 1,983 10.0 -10.6°
Maximum altitude 18:44:04 10° 259° (W) 1,716 10.3 -11.1°
Sets 18:48:33 0° 310° (NW) 2,598 11.7 -12.2°
